Location: Ikejouine
(32.5142°N, 5.4699°W)
Time: 01:17:56
(UTC+00:00)

Resurs 1-3 - Pass Details

Date: 09 April 2020
Orbit: 630 x 632 km, 97.9° (Epoch: 06 June)

Event Time Altitude Azimuth Distance (km) Brightness Sun altitude
Exits shadow 20:18:53 37° 78° (ENE) 985 4.2 -19.2°
Maximum altitude 20:19:01 37° 73° (ENE) 983 4.2 -19.2°
Drops below altitude 10° 20:23:04 10° 6° (N) 2,016 6.4 -20.0°
Sets 20:25:23 0° 358° (N) 2,927 7.4 -20.5°
